Palm Springs, CA

6:26 AM PST on December 03, 2016 (GMT -0800)
Palm Springs International

Weather History for KPSP - July, 2014

Change the Weather History Date:

Thursday, July 31, 2014

  Actual Average Record
Temperature  
Mean Temperature 99 °F 93 °F  
Max Temperature 110 °F 107 °F 122 °F (1957)
Min Temperature 88 °F 78 °F 65 °F (1936)
Degree Days  
Heating Degree Days 0 0  
Month to date heating degree days 0 0  
Since 1 June heating degree days 0 0  
Since 1 July heating degree days 0 0  
Cooling Degree Days 34 28  
Month to date cooling degree days 919 846  
Year to date cooling degree days 2772 2252  
Since 1 June cooling degree days 1662 1493  
Growing Degree Days 50 (Base 50)    
Moisture  
Dew Point 53 °F    
Average Humidity 23    
Maximum Humidity 32    
Minimum Humidity 13    
Precipitation  
Precipitation 0.00 in 0.02 in 1.68 in (1922)
Month to date precipitation 0.27 0.25  
Year to date precipitation 1.02 3.19  
Since 1 July precipitation 0.27  
Snow  
Snow 0.00 in - - ()
Month to date snowfall 0.0  
Year to date snowfall 0.0  
Snow Depth 0.00 in    
Sea Level Pressure  
Sea Level Pressure 29.79 in    
Wind  
Wind Speed 9 mph (WNW)    
Max Wind Speed 17 mph    
Max Gust Speed 20 mph    
Visibility 10 miles    
Events      
T = Trace of Precipitation, MM = Missing Value Source: NWS Daily Summary

Daily Weather History Graph

Daily Weather History Graph

Search for Another Location

Airport or City:

Trip Planner

Search our weather history database for the weather conditions in past years. The results will help you decide how hot, cold, wet, or windy it might be!

Date:

Astronomy

Jul. 31, 2014 Rise Set
Actual Time 5:57 AM PDT 7:47 PM PDT
Civil Twilight 5:29 AM PDT 8:14 PM PDT
Nautical Twilight 4:56 AM PDT 8:47 PM PDT
Astronomical Twilight 4:21 AM PDT 9:22 PM PDT
Moon 10:13 AM PDT (7/31) 10:18 PM PDT (7/31)
Length of Visible Light 14h 44m
Length of Day
13h 50m
Waxing Crescent, 20% of the Moon is Illuminated
Jul 31
Waxing Crescent
Aug 3
First Quarter
Aug 10
Full
Aug 17
Last Quarter
Aug 25
New

Hourly Weather History & Observations

Time (PDT) Temp. Heat Index Dew Point Humidity Pressure Visibility Wind Dir Wind Speed Gust Speed Precip Events Conditions
12:53 AM 96.1 °F - 52.0 °F 22% 29.81 in 10.0 mi Calm Calm - N/A   Clear
1:53 AM 91.0 °F 88.9 °F 55.0 °F 29% 29.80 in 10.0 mi SSW 3.5 mph - N/A   Clear
2:53 AM 93.0 °F 90.8 °F 54.0 °F 27% 29.79 in 10.0 mi West 5.8 mph - N/A   Clear
3:53 AM 90.0 °F 87.9 °F 55.0 °F 30% 29.80 in 10.0 mi WSW 4.6 mph - N/A   Clear
4:53 AM 93.0 °F 90.6 °F 53.1 °F 26% 29.80 in 10.0 mi WNW 8.1 mph - N/A   Clear
5:53 AM 93.0 °F 90.6 °F 53.1 °F 26% 29.81 in 10.0 mi West 6.9 mph - N/A   Clear
6:53 AM 91.9 °F 89.5 °F 54.0 °F 27% 29.82 in 10.0 mi WNW 8.1 mph - N/A   Clear
7:53 AM 96.1 °F 93.5 °F 53.1 °F 23% 29.82 in 10.0 mi WNW 10.4 mph - N/A   Clear
8:53 AM 100.9 °F - 50.0 °F 18% 29.82 in 10.0 mi NW 12.7 mph - N/A   Clear
9:53 AM 105.1 °F - 50.0 °F 16% 29.82 in 10.0 mi NW 12.7 mph - N/A   Clear
10:53 AM 108.0 °F - 46.9 °F 13% 29.83 in 10.0 mi Variable 3.5 mph - N/A   Clear
11:53 AM 109.0 °F - 48.9 °F 14% 29.82 in 10.0 mi SE 10.4 mph - N/A   Clear
12:53 PM 108.0 °F 106.6 °F 55.0 °F 17% 29.81 in 10.0 mi East 15.0 mph - N/A   Clear
1:53 PM 107.1 °F 106.0 °F 55.0 °F 18% 29.80 in 10.0 mi East 13.8 mph - N/A   Mostly Cloudy
3:53 PM 109.0 °F 107.4 °F 53.1 °F 16% 29.76 in 10.0 mi ESE 8.1 mph - N/A   Clear
4:53 PM 109.0 °F 107.4 °F 54.0 °F 16% 29.74 in 10.0 mi ESE 9.2 mph - N/A   Clear
5:53 PM 108.0 °F 106.6 °F 55.0 °F 17% 29.73 in 10.0 mi ESE 6.9 mph - N/A   Mostly Cloudy
7:53 PM 105.1 °F 103.3 °F 54.0 °F 18% 29.74 in 10.0 mi East 4.6 mph - N/A   Clear
8:53 PM 104.0 °F 102.3 °F 54.0 °F 19% 29.76 in 10.0 mi ENE 5.8 mph - N/A   Clear
9:53 PM 102.9 °F - 48.9 °F 16% 29.78 in 10.0 mi NW 12.7 mph - N/A   Clear
10:53 PM 100.9 °F - 48.0 °F 17% 29.79 in 10.0 mi NW 5.8 mph - N/A   Clear
11:53 PM 97.0 °F 95.0 °F 55.0 °F 24% 29.80 in 10.0 mi NW 4.6 mph - N/A   Clear